Regional Weather Roundup
Issued by NWS Upton, NY

Current Version | Previous Version | Graphics & Text | Print | Product List | Glossary Off
Versions: 1 2 3 4 5 6 7 8 9 10 11 12 13 14 15 16 17 18 19 20 21 22 23 24 25 26 27 28 29 30 31 32 33 34 35 36 37 38 39 40 41 42 43 44 45 46 47 48 49 50
000 ASUS41 KOKX 032204 RWROKX REGIONAL WEATHER ROUNDUP NATIONAL WEATHER SERVICE NEW YORK NY 600 PM EDT MON AUG 03 2015 NOTE: "FAIR" INDICATES FEW OR NO CLOUDS BELOW 12,000 FEET WITH NO SIGNIFICANT WEATHER AND/OR OBSTRUCTIONS TO VISIBILITY. NYZ071-072-176-178-NJZ106-104-032300- NEW YORK CITY METRO AREA CITY SKY/WX TMP DP RH WIND PRES REMARKS CENTRAL PARK MOSUNNY 86 61 42 SW8 29.80S LAGUARDIA APRT MOSUNNY 87 66 49 S12G26 29.76S KENNEDY INTL MOSUNNY 82 70 66 S24G33 29.80R NEWARK/LIBERTY PTSUNNY 91 59 33 SW17G25 29.76S HX 90 BRNX BOT. GARD N/A 88 59 37 S3 29.78S TETERBORO PTSUNNY 90 58 33 S14 29.75S $$ NYZ177-179-078>081-032300- LONG ISLAND NEW YORK CITY SKY/WX TMP DP RH WIND PRES REMARKS FARMINGDALE SUNNY 83 70 64 SW18G30 29.79F ISLIP MOSUNNY 82 70 66 S17G28 29.78F SHIRLEY SUNNY 81 72 74 S20G26 29.80F WESTHAMPTON SUNNY 81 70 69 S12G22 29.82S MONTAUK POINT N/A 80 71 74 S9G17 29.81F $$ NYZ052-065-067-032300- HUDSON VALLEY CITY SKY/WX TMP DP RH WIND PRES REMARKS WHITE PLAINS MOSUNNY 84 65 52 S7 29.78S NEWBURGH NOT AVBL MONTGOMERY CLOUDY 85 63 47 SW13G23 29.77S POUGHKEEPSIE CLOUDY 88 57 34 SW15 29.74S ALBANY TSTM 75 63 66 S12G30 29.75R $$ NJZ001-105-106-008-010-013-015-019>022-104-032300- NEW JERSEY CITY SKY/WX TMP DP RH WIND PRES REMARKS NEWARK/LIBERTY PTSUNNY 91 59 33 SW17G25 29.76S HX 90 TETERBORO PTSUNNY 90 58 33 S14 29.75S CALDWELL PTSUNNY 88 60 38 SW6 29.76S MORRISTOWN MOSUNNY 91 57 31 W10G20 29.77S HX 90 SOMERVILLE PTSUNNY 89 57 33 MISG 29.76R SUSSEX CLOUDY 83 64 52 SW3 29.78S ANDOVER N/A 82 65 56 SW3 29.80R TRENTON PTSUNNY 89 59 36 SW10 29.78S MILLVILLE MOSUNNY 88 67 49 SW7 29.81F HX 91 ATLANTIC CITY SUNNY 84 72 67 S14G22 29.81F WRIGHTSTOWN MOSUNNY 89 61 39 SW16 29.77S TOMS RIVER N/A 86 70 58 S12 29.80S HX 90 BELMAR MOSUNNY 88 66 48 S10G17 29.79S HX 90 $$ PAZ047>061-062-071-032300- EASTERN PENNSYLVANIA CITY SKY/WX TMP DP RH WIND PRES REMARKS PHILADELPHIA PTSUNNY 90 60 36 SW16 29.80S ALLENTOWN CLOUDY 85 63 47 SW13G21 29.79R SCRANTON PTSUNNY 85 62 46 W15G21 29.78F $$ CTZ002-004>006-009-010-012-RIZ004-006-007-MAZ004-011-015-032300- SOUTHERN NEW ENGLAND IN CT CITY SKY/WX TMP DP RH WIND PRES REMARKS BRADLEY INTL PTSUNNY 86 62 44 S16 29.74S HARTFORD MOSUNNY 86 66 51 S12G18 29.75S DANBURY MOSUNNY 83 63 50 S9 29.78F WTRBRY/OXFORD PTSUNNY 81 64 57 S10G17 29.82S BRIDGEPORT MOSUNNY 83 68 60 S17 29.77F MERIDEN MOSUNNY 86 64 47 S16G25 29.77S NEW HAVEN MOSUNNY 82 68 62 S12 29.78F CHESTER FAIR 81 66 61 S10 29.81F GROTON SUNNY 78 68 71 SW14 29.80R WILLIMANTIC MOSUNNY 83 65 54 S14G24 29.79R IN RI CITY SKY/WX TMP DP RH WIND PRES REMARKS PROVIDENCE MOSUNNY 83 62 49 SW13G25 29.80S BLOCK ISLAND N/A 79 73 83 S15 29.82F WESTERLY SUNNY 80 69 69 S15 29.81F IN MA CITY SKY/WX TMP DP RH WIND PRES REMARKS BOSTON MOSUNNY 84 62 47 S21 29.75S WORCESTER PTSUNNY 81 60 48 S12G22 29.80S WESTFIELD PTSUNNY 84 63 49 S13G22 29.74S PROVINCETOWN SUNNY 79 66 65 S15 29.80S NANTUCKET SUNNY 76 70 82 S15 29.83F $$ ANZ330-335-338-340-345-350-353-355-032300- COASTAL MARINE OBSERVATIONS STATION/POSITION TIME SKY/WX TEMP WIND PRES VSBY WAVE AIR SEA DIR/SP/G HT/PER (UTC) (F) (DEG/KT/KT) (MB) (MI) (FT/S) NY HARB ENTRANCE 2050 79 78 190/ 21/ 23 1008.2 4/ 5 4S FIRE IS NOT AVBL 20S FIRE ISLAND 2050 78 77 200/ 17/ 21 1009.4 4/ 4 GREAT SOUTH BAY 2130 78 81 230/ 17/ 19 N/A 23SW MTP 2150 78 75 210/ 17/ 19 1009.2 4/ 8 HUDSON CANYON NOT AVBL KINGS POINT 2100 82 72 200/ 13/ 16 1007.5 EXECUTION ROCKS 2100 82 180/ 8/ 12 N/A CENTRAL LI SOUND NOT AVBL EASTERN LI SOUND 2100 74 68 200/ 10/ 12 N/A ROBBINS REEF 2100 87 220/ 17/ 22 1006.8 $$ >>>>>>>>>>>>>>>>>>>>>>>>>>>> KEY <<<<<<<<<<<<<<<<<<<<<<<<<<< > < > SKY/WX - SKY CONDITION/PRESENT WEATHER < > TMP - TEMPERATURE IN FAHRENHEIT < > DP - DEWPOINT IN FAHRENHEIT < > RH - RELATIVE HUMIDITY IN PERCENT < > WIND - DIRECTION AND SPEED IN MPH < > PRES - MEAN SEA LEVEL PRESSURE IN INCHES OF HG < > WCI - WIND CHILL INDEX < > VSB - VISIBILITY IN MILES < > HX - HEAT INDEX < > TC - TEMPERATURE IN CELSIUS < > VRB - VARIABLE WIND DIRECTION < > < >>>>>>>>>>>>>>>>>>>>>>>>>>>> KEY <<<<<<<<<<<<<<<<<<<<<<<<<<<

USA.gov is the U.S. government's official web portal to all federal, state and local government web resources and services.